Hourly Data Report for October 06, 2016

All times are specified in Local Standard Time (LST). Add 1 hour to adjust for Daylight Saving Time where and when it is observed.

PENTICTON A
BRITISH COLUMBIA

49°27'45.000" N
119°36'08.000" W
344.40 m
1126146
71889
YYF

Download Data

Hourly Data (October 2016)
Hourly Data Report for October 6, 2016
Temp Definition
°C
Dew Point Temp Definition
°C
Rel Hum Definition
%
Wind Dir Definition
10's deg

Wind Spd Definition
km/h
Visibility Definition
km
Stn Press Definition
kPa
Hmdx Definition


Wind Chill Definition


Weather Definition


TIME
00:00 Legend Double Dagger 10.1 5.1 71 36 1 24.1 97.57     LegendNANA
01:00 Legend Double Dagger 11.8 7.6 75 16 9 24.1 97.62     Rain Showers
02:00 Legend Double Dagger 9.4 8.3 93 36 5 24.1 97.64     LegendNANA
03:00 Legend Double Dagger 9.0 8.3 95 34 6 24.1 97.65     LegendNANA
04:00 Legend Double Dagger 8.6 8.2 97 2 4 24.1 97.66     Cloudy
05:00 Legend Double Dagger 8.5 8.1 97 36 9 24.1 97.70     LegendNANA
06:00 Legend Double Dagger 10.4 7.1 80 17 13 24.1 97.72     LegendNANA
07:00 Legend Double Dagger 9.8 7.2 84 14 8 24.1 97.75     Mainly Clear
08:00 Legend Double Dagger 10.9 7.2 78 16 18 24.1 97.78     LegendNANA
09:00 Legend Double Dagger 12.6 6.7 67 17 21 24.1 97.79     LegendNANA
10:00 Legend Double Dagger 12.9 6.5 65 16 26 24.1 97.79     Mostly Cloudy
11:00 Legend Double Dagger 14.3 7.2 62 16 22 24.1 97.77     LegendNANA
12:00 Legend Double Dagger 14.1 6.8 61 16 22 24.1 97.76     LegendNANA
13:00 Legend Double Dagger 14.3 7.2 62 17 24 24.1 97.69     Rain Showers
14:00 Legend Double Dagger 15.3 7.2 58 18 18 24.1 97.65     LegendNANA
15:00 Legend Double Dagger 15.9 7.5 57 18 17 24.1 97.59     LegendNANA
16:00 Legend Double Dagger 15.8 6.9 55 19 22 24.1 97.52     Cloudy
17:00 Legend Double Dagger 15.6 5.9 52 20 16 24.1 97.46     LegendNANA
18:00 Legend Double Dagger 15.3 6.7 56 2 18 24.1 97.43     LegendNANA
19:00 Legend Double Dagger 15.4 6.2 54 19 15 24.1 97.42     Cloudy
20:00 Legend Double Dagger 11.5 9.4 87 16 11 24.1 97.46     Rain Showers
21:00 Legend Double Dagger 11.2 9.1 87 18 18 24.1 97.36     Rain Showers
22:00 Legend Double Dagger 11.4 9.2 86 13 8 24.1 97.21     Rain
23:00 Legend Double Dagger 11.3 9.2 87 11 13 24.1 97.12     Rain

Notes on Data Quality.

Legend

  • E = Estimated
  • M = Missing
  • NA = Not Available
  • ‡ = Partner data that is not subject to review by the National Climate Archives
Date modified: